Location: Grund
(46.4500°N, 7.2667°E)
Time: 07:00:56
(UTC+00:00)

Daily predictions for brighter satellites

Satellite Brightness Start Highest point End
(mag) Time Altitude Azimuth Time Altitude Azimuth Time Altitude Azimuth
USA 281 3.3 16:41:23 10° SSE 16:47:57 83° ENE 16:54:33 10° NNW
FALCON 9 DEB 3.6 16:48:42 10° SSW 16:51:44 41° SE 16:54:46 10° ENE
Landsat 5 4.1 16:48:56 10° N 16:52:44 56° WNW 16:56:37 10° SSW
CZ-2C R/B 4.4 16:49:13 10° ESE 16:53:32 22° ENE 16:57:46 10° NNE
SMAP 3.1 16:49:13 10° SSE 16:53:51 87° E 16:58:34 10° NNW
Meteor 2-14 Rocket 4.4 16:48:12 10° N 16:54:22 69° E 17:00:26 10° SSE
Cosmos 2219 3.7 16:49:36 10° NNW 16:55:02 41° NE 17:00:26 10° SE
Cosmos 1726 Rocket 4.0 16:52:39 10° SSE 16:56:44 41° E 17:00:52 10° NNE
Cosmos 1943 Rocket 4.5 16:53:10 10° W 16:56:49 18° NW 17:00:28 10° N
Cosmos 1758 Rocket 3.6 16:55:21 10° N 16:59:47 87° W 17:04:08 10° S
USA 307 3.9 16:56:48 10° NW 17:00:45 33° NNE 17:04:39 10° ENE
Meteor 2-21 4.5 16:54:52 10° N 17:01:04 81° E 17:07:10 10° SSE
Cosmos 1328 4.2 16:57:22 10° NNW 17:01:19 70° W 17:05:14 10° S
FALCON 9 DEB 3.3 17:00:33 10° SW 17:03:42 50° SE 17:06:44 11° ENE
Cosmos 2228 3.0 16:59:33 10° S 17:03:45 66° E 17:08:01 10° NNE
YAOGAN 6 3.6 17:00:37 10° S 17:04:11 52° W 17:07:48 10° NNW
Cosmos 1939 Rocket 3.4 17:01:16 10° SE 17:04:53 35° ENE 17:08:29 10° N
USA 308 3.8 17:01:40 10° NW 17:05:37 34° NNE 17:09:20 11° ENE
CZ-4B R/B 1.2 17:02:47 10° NNE 17:05:59 60° ESE 17:09:05 10° S
ATLAS 5 CENTAUR R/B 3.9 17:04:34 10° WNW 17:07:30 17° NNW 17:10:41 10° NNE
Helios 1A Rocket 3.7 17:08:28 10° SE 17:12:07 31° ENE 17:15:45 10° N
Cosmos 1606 Rocket 3.5 17:07:56 10° S 17:12:17 77° E 17:16:43 10° NNE
GENESIS II 4.4 17:11:07 10° SW 17:15:09 78° NW 17:19:13 10° NE
FALCON 9 DEB 3.0 17:12:08 10° SW 17:15:20 67° SE 17:17:56 14° ENE
CZ-4B R/B 4.0 17:10:28 10° S 17:15:59 58° WSW 17:21:26 10° NNW
Okean-O 3.3 17:14:34 10° SE 17:18:34 34° ENE 17:22:34 10° N
SKYMED 2 3.9 17:15:59 10° NNE 17:20:10 44° E 17:24:18 10° S
Cosmos 1656 4.1 17:16:04 10° S 17:21:12 40° ESE 17:26:26 10° NE
Cosmos 1689 Rocket 2.6 17:18:42 10° NNE 17:21:22 33° E 17:24:01 10° SSE
Cosmos 1400 Rocket 3.1 17:20:04 10° S 17:24:02 48° E 17:27:59 10° NNE
H-2A R/B 3.0 17:21:59 10° ESE 17:26:29 28° ENE 17:31:03 10° N
PSLV R/B 4.3 17:24:27 10° NNE 17:28:27 43° E 17:32:23 10° S
GEOS 3 Rocket 4.4 17:24:32 13° E 17:28:42 36° NE 17:33:36 10° NNW
CZ-4 R/B 1.8 17:25:19 10° SE 17:28:51 35° ENE 17:32:24 10° N
Cosmos 2227 Rocket 2.3 17:23:31 10° NNW 17:29:06 55° ENE 17:34:38 10° SE
Cosmos 2058 3.7 17:26:16 10° NNE 17:29:49 28° ENE 17:33:22 10° SE
Meteor 2-16 Rocket 4.4 17:23:58 10° N 17:30:05 87° E 17:36:12 10° S
Cosmos 1892 3.2 17:27:35 10° N 17:31:14 37° ENE 17:34:51 10° SE
Cosmos 2263 Rocket 3.9 17:30:53 10° N 17:34:05 15° NE 17:35:34 14° NE
CSL-04 Rocket 4.4 17:29:53 10° SE 17:34:46 33° ENE 17:39:38 10° N
BREEZE-M R/B 4.0 17:26:06 10° W 17:35:19 62° N 17:37:09 22° ENE
Cosmos 1408 3.5 17:32:14 10° NNE 17:35:23 27° ENE 17:37:15 18° ESE
Cosmos 1244 Rocket 4.4 17:31:28 10° N 17:37:42 83° E 17:43:57 10° S
CZ-4C R/B 4.2 17:35:33 10° NNW 17:40:24 21° NNE 17:44:24 14° NE
Cosmos 1953 Rocket 4.1 17:37:44 10° NNW 17:42:06 62° W 17:46:29 10° S
Cosmos 1300 3.3 17:38:40 10° SSW 17:42:25 58° WNW 17:46:13 10° N
Cosmos 2058 Rocket 3.0 17:41:11 10° S 17:45:40 85° E 17:50:12 10° N
Cosmos 1697 Rocket 3.3 17:40:49 10° SSE 17:45:48 34° ESE 17:49:37 16° NE
IRS-1C Rocket 4.2 17:42:19 10° SSE 17:47:35 83° WSW 17:52:54 10° NNW
SL-4 R/B 2.6 17:44:17 10° WNW 17:47:38 37° N 17:49:04 26° NE
CZ-2D R/B 3.1 17:43:57 10° SSE 17:47:46 78° ENE 17:51:35 10° N
SeaSat 1 3.4 17:46:27 23° E 17:48:10 29° NE 17:52:22 10° N
Cosmos 1346 Rocket 3.0 17:46:17 10° N 17:50:10 46° ENE 17:54:01 10° SSE
NOSS 3-3 (A) 4.3 17:45:10 10° S 17:50:28 39° ESE 17:54:18 20° ENE
NOSS 3-3 (C) 4.3 17:45:15 10° S 17:50:36 39° ESE 17:54:24 20° ENE
USA 305 3.3 17:47:32 10° NW 17:51:44 49° NNE 17:53:27 31° E
Cosmos 1825 3.3 17:49:05 10° NNE 17:51:37 26° NE 17:51:37 26° NE
IRS-P2 Rocket 4.5 17:48:00 10° SSE 17:53:13 79° ENE 17:58:32 10° NNW
Cosmos 44 3.8 17:49:53 10° SW 17:54:20 55° NW 17:59:04 10° NNE
Cosmos 1315 Rocket 3.3 17:51:35 10° SSE 17:55:14 36° E 17:56:19 30° ENE
USA 215 4.0 17:51:39 20° ENE 17:55:35 39° NNE 18:01:32 10° NW
USA 306 3.2 17:53:57 10° NW 17:58:09 53° NNE 17:59:35 35° E
ERS-2 4.3 17:56:17 10° N 17:59:24 27° WNW 18:02:29 10° SW
BREEZE-M R/B 3.7 17:57:39 10° WNW 18:01:35 65° NNE 18:05:18 28° E
ATLAS 2AS CENTAUR R/B 3.7 17:55:32 10° NNW 18:02:20 33° NNE 18:05:17 25° ENE
Cosmos 968 Rocket 3.4 17:59:17 10° NNW 18:04:32 86° ENE 18:09:43 10° SSE
Cosmos 1340 3.4 18:01:19 10° NNW 18:05:02 55° W 18:08:44 10° S
COSMO-SKYMED 1 3.1 18:03:58 10° N 18:08:15 59° WNW 18:12:31 10° SSW
Cosmos 1980 Rocket 3.2 18:03:50 10° SSE 18:07:19 26° SE 18:07:19 26° SE
Cosmos 2297 Rocket 2.6 18:03:21 10° NNW 18:08:59 65° WSW 18:14:34 10° SSE
MOS 1 Rocket 3.5 18:04:30 10° NNE 18:09:04 49° E 18:13:52 10° S
Cosmos 1076 Rocket 3.5 18:06:02 10° N 18:10:12 54° ENE 18:11:35 37° SE
In-Cosmos 22 Rocket 4.5 18:05:56 10° NNW 18:11:15 67° W 18:16:39 10° S
Aureole 3 Rocket 3.9 18:07:27 10° SSW 18:11:21 57° WNW 18:16:46 10° N
Cosmos 2315 Rocket 4.3 18:09:04 10° SSE 18:14:44 39° E 18:20:25 10° NNE
CSL-04 Debris 4.1 18:09:40 10° SSE 18:15:03 70° ENE 18:20:31 10° N
S3M 3.8 18:09:05 10° S 18:15:09 75° E 18:21:20 10° NNE
Lacrosse 5 3.3 18:18:03 10° NW 18:22:15 25° N 18:23:30 23° NNE
FALCON 9 DEB 4.3 18:19:26 10° NW 18:22:07 33° N 18:22:07 33° N
YAOGAN 1 2.8 18:18:31 10° S 18:22:50 70° WSW 18:27:10 10° NNW
FALCON 9 DEB 3.9 18:20:28 10° W 18:23:30 42° NNW 18:23:30 42° NNW
Cosmos 2360 4.3 18:19:02 10° S 18:24:34 53° ESE 18:26:15 40° ENE
Cosmos 1486 Rocket 4.5 18:19:43 10° NNW 18:25:00 63° WSW 18:30:13 10° S
FALCON 9 DEB 4.1 18:24:45 10° W 18:27:30 37° NNW 18:27:30 37° NNW
Cosmos 1812 Rocket 3.4 18:25:41 10° S 18:30:05 73° E 18:30:36 64° NE
Cosmos 1455 2.1 18:27:07 10° S 18:30:52 81° W 18:31:13 71° NNW
CZ-2C R/B 3.6 18:27:08 10° S 18:32:54 68° WSW 18:38:32 10° NNW
Cosmos 1503 Rocket 3.9 18:29:37 10° NNW 18:34:52 88° WSW 18:37:12 34° SSE
Cosmos 44 Rocket 4.1 18:32:25 10° SSW 18:35:27 35° SSE 18:35:27 35° SSE
Cosmos 2278 4.1 18:32:23 10° S 18:36:45 44° SE 18:36:45 44° SE
DMSP B5D1-3 4.5 18:34:21 10° NNE 18:39:31 85° WNW 18:44:41 10° SSW
USA 307 2.9 18:36:53 10° WNW 18:40:52 76° NW 18:40:52 76° NW
Meteor 2-10 Rocket 4.0 18:39:05 10° SSW 18:44:20 60° WNW 18:49:26 10° N
USA 308 3.1 18:41:44 10° WNW 18:45:31 68° WNW 18:45:31 68° WNW
Cosmos 1354 Rocket 4.0 18:41:09 10° NNW 18:46:26 81° WSW 18:47:53 49° S
Cosmos 2082 3.9 18:42:22 10° NNW 18:48:05 70° WSW 18:50:45 32° S
ATLAS 5 CENTAUR R/B 4.3 18:52:30 10° NNW 18:54:17 12° N 18:55:01 11° NNE
Cosmos 1992 Rocket 4.5 18:51:22 10° SW 18:56:30 59° WNW 18:59:48 22° N
ARGOS 3.2 18:54:41 39° S 18:56:46 76° WSW 19:02:14 10° NNW
Cosmos 2369 3.8 18:55:45 10° SSW 19:01:28 76° WNW 19:03:11 47° NNE
CZ-4 R/B 3.9 19:01:08 10° SW 19:04:00 20° W 19:06:52 10° NW
H-2A R/B 3.0 19:00:25 10° S 19:05:37 49° W 19:10:56 10° NNW
Ariane Rocket 4.1 19:07:51 35° N 19:07:51 35° N 19:10:46 10° N
GEOS 3 Rocket 4.1 19:05:41 52° SSW 19:06:31 58° SW 19:11:51 10° NW
Cosmos 2227 Rocket 4.2 19:08:13 10° NW 19:12:46 25° WSW 19:17:18 10° SSW
Cosmos 2263 Rocket 3.1 19:13:32 10° NNW 19:17:16 40° N 19:17:16 40° N
Atlas Centaur 2 4.3 19:13:17 10° SW 19:19:52 25° S 19:20:08 25° S
SeaSat 1 3.4 19:26:15 46° W 19:26:15 46° W 19:30:17 10° NW
Cosmos 1697 Rocket 3.8 19:24:22 10° SW 19:29:40 42° NW 19:31:25 33° NNW
CZ-4C R/B 3.4 19:23:58 10° NNW 19:29:36 44° NNE 19:29:36 44° NNE
NOSS 3-4 (A) 3.8 19:25:00 10° NW 19:31:39 82° NNW 19:31:39 82° NNW
NOSS 3-4 (C) 3.8 19:25:06 10° NW 19:31:43 81° NNW 19:31:43 81° NNW
DEBRIS 4.3 19:23:38 10° WSW 19:36:49 71° WNW 19:36:49 71° WNW
USA 215 3.5 19:39:00 62° NNW 19:39:00 62° NNW 19:44:34 10° NW
Cosmos 1980 Rocket 3.9 19:46:48 10° SW 19:49:11 25° WSW 19:49:11 25° WSW
ATLAS 2AS CENTAUR R/B 3.2 19:46:41 10° NW 19:52:43 60° NW 19:52:43 60° NW
Lacrosse 5 4.3 20:01:19 10° NW 20:02:41 18° NW 20:02:41 18° NW
